PETITSAT

Last updated on Mon Apr 10 2023 00:02:07 GMT+0000 (Coordinated Universal Time)

1 55130U 98067UX 23098.98843613 .05517399 12007-4 16215-2 0 9998 2 55130 51.6197 299.0779 0013355 267.1764 92.7728 16.26199975 15778

Satellite not in orbit